Theta_e
343 345 346 347 347 346 346 346 345 345 344 344 343 343 342 339 336 335 334 335 335 335 335 335 334 333 332 333 333 333 333 333 332 331 330 330 331 332 331 331 331 330 330 329 329 329 329 328 327 326 326 327
339 341 344 345 344 345 345 345 345 344 344 343 343 341 340 338 336 335 333 334 334 334 334 334 332 330 330 330 331 331 331 331 331 330 330 329 330 330 330 330 330 329 328 328 327 327 328 327 326 325 325 325
344 335 340 342 342 343 343 343 343 344 341 340 340 337 335 334 332 332 332 333 331 332 332 332 331 329 328 328 328 328 329 331 331 330 329 328 329 329 329 329 328 327 327 326 326 326 326 325 324 323 324 324
347 334 333 337 339 340 341 341 340 338 336 335 333 332 330 329 331 328 329 324 328 328 329 329 327 330 329 328 328 328 329 331 330 330 329 328 328 327 326 326 325 324 325 324 324 325 324 323 323 326 326 325
345 343 331 333 332 334 337 336 335 333 327 326 326 328 327 328 331 330 329 327 327 324 328 322 324 330 329 328 327 327 328 329 329 328 327 326 325 324 322 320 319 320 321 322 322 323 322 321 325 326 326 326
345 345 340 344 345 344 336 330 328 336 339 334 340 327 333 337 333 333 333 329 328 326 326 324 321 324 326 325 325 324 326 327 326 325 325 324 323 322 321 320 319 318 318 319 320 320 319 322 324 325 325 325
346 343 344 345 344 344 335 337 340 342 339 341 341 339 339 336 335 335 333 331 329 327 321 324 320 322 324 324 324 323 323 324 324 323 322 321 319 319 320 318 319 318 319 319 316 316 320 321 322 324 324 323
345 345 343 344 344 342 342 340 342 341 341 340 340 339 338 338 337 335 332 323 322 322 324 323 319 320 321 321 320 319 320 320 320 319 318 317 318 318 315 314 314 315 316 317 318 319 319 319 321 323 323 322
343 344 345 344 343 344 342 341 340 340 341 340 341 339 338 338 337 336 332 328 326 325 322 321 320 319 318 317 317 315 314 313 314 313 315 315 316 315 316 315 314 314 314 314 315 316 317 317 319 320 321 320
342 341 342 342 342 342 342 342 340 340 341 340 341 340 338 339 337 334 331 329 330 328 324 320 318 318 317 317 316 315 313 313 316 318 318 317 316 314 313 312 311 311 311 312 312 312 315 316 316 317 318 319
341 341 341 341 344 341 341 341 340 340 340 340 339 340 339 338 336 334 331 331 331 329 326 323 322 320 320 319 317 317 317 318 319 318 316 315 314 312 311 310 310 309 310 310 310 311 312 313 314 315 315 317
337 338 339 340 340 342 338 340 339 338 339 340 339 339 338 335 337 334 332 331 331 330 330 329 326 322 320 319 319 320 320 319 318 316 315 314 313 311 310 308 308 307 308 308 309 309 310 311 312 313 312 314
337 337 337 339 339 340 337 340 340 340 339 338 338 338 338 338 337 335 333 332 332 332 330 330 326 321 320 321 320 320 319 318 316 315 314 313 312 311 309 307 306 305 305 306 307 307 308 309 310 311 311 312
334 335 336 336 338 339 339 340 340 340 339 339 338 337 337 337 336 335 334 333 332 331 330 330 326 321 321 321 320 320 318 317 315 314 313 312 311 309 308 306 305 304 303 303 304 305 306 308 308 308 309 310
333 335 335 336 337 338 338 339 340 339 339 338 338 337 337 337 337 335 336 334 332 331 330 330 326 322 321 321 320 320 318 317 315 314 312 311 309 308 306 304 304 303 302 302 302 302 303 304 306 306 306 307
333 333 335 336 335 336 337 338 339 339 339 337 339 338 338 337 337 336 335 335 334 332 330 329 326 324 323 322 320 319 318 315 314 313 312 311 309 308 305 303 303 302 301 300 300 300 300 302 303 304 304 304
331 332 332 332 335 335 337 336 337 338 338 338 339 338 337 337 336 336 335 335 334 333 331 330 328 326 325 322 320 319 316 315 313 311 310 308 307 306 304 302 302 303 300 298 298 299 299 299 299 300 301 301
328 328 331 332 331 334 334 335 335 336 337 338 338 338 337 337 336 336 336 336 334 332 331 328 327 325 323 322 320 318 316 314 312 310 308 306 306 304 303 301 301 299 299 298 298 298 298 298 298 299 298 298
328 328 328 329 331 331 334 334 334 335 337 338 338 337 336 336 337 336 336 337 334 332 331 327 326 326 326 325 319 317 315 314 311 309 306 305 304 303 302 301 300 299 298 297 297 297 297 297 298 298 297 298
328 328 328 328 324 329 331 331 333 334 336 336 337 336 335 336 336 337 336 336 336 334 332 328 325 325 325 322 318 316 314 312 309 307 306 305 303 301 300 299 299 299 297 297 296 297 297 297 297 296 297 297
326 326 327 327 327 327 330 330 331 332 335 335 335 335 335 336 336 335 336 336 334 333 331 330 327 324 323 321 317 315 312 311 309 306 306 303 302 302 299 299 299 298 298 297 297 297 297 297 296 296 296 296
323 323 323 324 325 326 327 329 330 332 332 332 332 333 333 334 334 333 335 334 333 332 331 329 328 325 323 320 317 315 312 310 308 306 304 300 301 301 299 298 297 297 297 297 297 296 296 296 296 296 296 296
321 321 320 320 322 324 326 327 329 330 329 329 330 331 332 332 332 331 334 333 331 329 327 326 325 325 322 319 316 313 311 309 308 306 303 301 299 300 300 298 298 296 297 296 296 295 294 294 294 295 295 296
320 319 318 318 321 321 322 324 325 328 328 327 327 329 330 331 330 330 331 333 332 329 325 322 321 322 321 319 315 312 309 307 307 304 302 300 298 298 298 298 297 297 295 294 293 293 293 294 294 294 294 294
318 317 318 319 319 317 319 321 324 324 325 325 326 327 328 328 328 329 328 328 330 328 322 321 320 320 318 317 314 312 310 308 307 304 301 299 299 298 296 296 296 296 295 292 291 292 292 291 292 292 292 292
318 318 317 317 317 317 319 320 321 321 322 323 324 325 326 327 328 329 327 325 325 324 323 321 319 319 317 316 314 313 311 309 305 303 300 299 297 298 296 294 295 295 294 291 289 287 288 289 290 291 290 290
317 317 318 318 319 318 318 321 323 323 323 322 321 322 322 323 323 325 326 324 323 322 321 320 319 317 317 316 314 311 310 309 305 301 299 298 297 295 296 295 296 294 295 292 291 291 288 286 286 288 288 289
318 318 318 319 320 320 319 317 314 314 317 319 319 318 318 319 319 322 323 323 322 322 321 320 319 318 317 315 314 312 309 306 303 300 298 298 297 296 293 293 293 295 296 295 291 287 289 288 289 285 285 286
318 318 317 317 314 315 312 312 312 312 312 314 314 317 314 314 315 318 319 321 321 321 320 319 319 317 316 315 313 311 308 305 302 300 300 299 297 296 294 292 293 295 297 299 296 295 292 289 289 291 290 286
317 316 315 311 310 310 311 310 309 309 310 310 312 314 314 311 313 315 316 318 318 320 320 319 318 317 315 314 312 311 309 306 304 300 299 299 298 297 297 295 293 293 298 301 298 303 303 301 294 293 288 288
316 315 314 313 312 311 311 311 311 313 315 314 312 312 310 311 310 311 313 315 316 317 317 319 318 317 316 314 312 309 308 305 302 300 300 300 299 298 298 298 295 295 297 298 300 302 301 300 298 296 289 288
Wind_Speed
7 8 8 8 9 8 8 9 10 11 11 12 13 13 13 12 12 12 13 14 14 14 13 14 14 14 14 14 15 15 15 15 16 16 16 16 16 16 17 17 16 16 15 15 14 13 11 12 12 11 12 10
6 6 7 7 8 8 7 8 9 10 10 11 12 12 11 10 10 11 13 13 13 14 13 13 14 15 15 15 16 16 16 16 16 16 16 16 17 16 17 17 16 16 15 15 13 12 10 12 11 10 12 10
7 6 6 7 9 9 8 8 8 8 9 11 12 12 11 10 11 11 11 12 11 11 11 11 13 15 15 16 16 16 16 17 17 17 17 17 17 17 17 17 16 15 15 14 13 11 9 9 8 10 9 10
9 6 7 7 8 9 9 9 9 10 10 11 12 12 13 12 11 10 10 11 9 9 9 10 11 13 14 15 16 16 16 17 17 17 18 17 17 17 17 16 16 15 14 13 12 10 9 8 9 11 10 12
8 7 7 7 8 10 10 10 10 12 11 11 11 11 12 11 9 9 8 9 9 10 9 9 11 12 14 14 14 15 15 16 16 17 17 17 17 17 17 16 15 14 13 13 11 9 8 8 11 9 10 10
7 6 7 10 8 9 8 9 11 10 8 9 9 10 10 8 8 7 7 8 10 9 10 10 11 12 13 14 13 14 15 16 16 17 17 16 16 15 12 10 8 8 9 10 9 9 9 9 10 9 10 10
6 9 9 9 8 6 9 8 9 9 9 9 9 10 9 7 7 7 7 6 7 8 10 10 11 12 12 13 13 14 15 15 15 16 15 14 13 10 7 6 5 6 5 5 6 7 8 8 9 10 11 10
6 6 7 7 7 8 7 7 6 8 9 8 9 9 7 6 6 8 7 13 14 11 9 8 11 12 13 13 12 13 11 13 14 15 14 11 8 5 5 5 5 5 4 5 5 5 6 7 7 9 8 8
6 7 7 7 8 6 7 7 7 5 7 7 9 8 6 6 6 7 8 8 8 7 8 8 8 8 8 8 8 8 8 7 7 7 6 4 5 6 5 5 5 5 5 5 5 5 6 6 7 8 8 7
6 7 7 7 7 7 6 7 7 6 5 7 7 7 6 6 7 8 7 8 7 7 8 8 7 7 7 7 7 7 7 7 6 5 5 5 5 5 5 6 5 5 5 5 5 5 5 6 6 6 7 7
7 6 6 7 7 7 7 6 6 7 5 6 7 7 7 7 7 7 7 7 7 8 8 7 7 7 7 7 7 7 6 6 6 5 5 6 6 6 6 6 6 6 6 5 5 5 5 5 6 6 6 7
6 6 7 6 5 7 7 8 8 7 7 6 7 8 8 8 7 8 8 7 7 7 7 7 7 7 7 7 6 6 6 6 5 5 5 6 7 7 6 7 6 6 6 6 5 6 5 5 5 6 6 6
8 7 8 7 6 7 6 8 7 7 8 7 7 7 8 8 7 8 8 9 7 6 6 6 6 7 7 7 7 7 7 6 6 5 6 6 6 6 6 6 6 5 5 5 5 5 5 5 5 6 6 6
8 9 9 8 7 7 7 9 8 9 7 9 8 8 7 7 8 8 9 9 8 7 6 6 6 6 6 6 6 7 7 7 6 6 6 6 6 6 6 6 5 5 5 5 5 5 5 5 5 4 5 5
9 8 8 8 6 7 8 8 8 8 9 10 9 9 9 9 10 9 9 9 9 9 7 6 8 7 7 6 6 6 7 8 7 7 6 6 6 6 6 6 5 5 5 5 5 5 5 4 4 4 5 5
8 9 8 7 6 5 8 8 8 8 9 9 9 10 10 10 11 10 10 10 10 9 9 9 8 6 6 6 6 6 7 7 6 6 7 6 6 7 6 7 5 5 5 6 5 5 5 4 4 4 5 5
9 9 10 8 7 6 5 7 9 9 9 9 9 9 11 11 11 10 10 10 11 7 9 10 7 5 4 4 5 5 7 9 7 7 7 7 6 7 6 7 6 5 6 6 5 5 5 4 4 4 4 5
11 10 10 9 9 8 6 5 8 9 9 9 9 8 10 10 11 10 10 9 9 8 6 9 8 7 6 5 7 6 7 7 7 7 7 8 7 7 7 7 7 6 6 6 5 5 4 4 4 4 5 4
10 9 10 11 10 10 9 8 9 9 8 8 9 9 8 9 10 11 11 9 9 9 9 9 8 8 7 6 7 7 7 7 7 7 7 7 8 7 6 7 7 7 6 6 6 5 4 4 4 4 5 5
10 9 8 8 8 9 10 9 8 9 9 8 7 9 8 10 10 10 10 10 8 9 8 8 7 8 6 8 7 8 6 7 8 8 6 6 7 8 7 7 7 6 6 6 7 5 4 4 4 4 4 4
10 9 9 9 9 10 9 9 8 8 6 5 6 7 7 9 8 9 10 7 8 8 9 8 9 8 9 8 8 9 7 7 6 7 6 6 4 4 8 7 8 7 6 6 6 5 5 4 4 4 4 4
9 8 8 8 8 8 9 10 9 7 6 6 6 5 6 6 7 8 11 9 8 8 7 8 9 9 10 10 8 8 8 7 6 7 7 7 5 5 7 8 9 8 7 6 5 6 5 4 4 4 4 4
9 8 8 8 9 9 9 9 9 8 8 5 5 6 6 6 6 7 10 9 9 6 6 6 7 10 11 10 9 9 9 7 7 7 7 8 7 5 4 7 8 8 7 7 6 5 5 4 5 3 3 3
9 8 8 9 9 9 10 9 7 7 7 7 6 6 7 7 7 8 7 9 8 8 7 6 6 8 9 9 9 10 10 9 8 10 9 8 9 9 6 4 7 8 8 8 7 7 5 5 4 4 3 4
10 10 8 8 9 10 10 10 9 10 10 8 7 8 9 8 8 9 9 8 7 10 8 7 7 7 8 8 9 9 11 11 10 8 8 8 5 9 9 6 6 7 8 9 7 6 5 5 4 4 3 3
10 9 9 9 10 11 10 10 10 11 9 9 8 9 8 9 8 8 9 7 7 7 8 9 8 10 9 9 8 8 6 7 8 10 9 9 8 2 8 8 9 8 9 6 7 8 6 4 3 3 2 2
10 9 8 8 8 9 9 9 10 11 11 9 9 9 8 6 5 7 8 8 8 8 7 9 9 10 9 10 10 9 8 8 11 11 13 12 10 8 3 6 7 10 8 7 7 6 7 5 4 2 2 2
10 9 9 9 8 9 8 9 2 1 3 7 9 10 8 7 5 7 7 9 9 7 8 8 10 10 11 9 12 11 10 11 11 11 10 10 9 12 10 6 8 9 9 7 11 8 6 7 5 3 7 7
10 9 9 7 2 3 5 3 4 4 5 6 7 9 6 7 5 5 6 8 9 9 11 11 9 10 11 12 13 11 10 9 11 9 12 13 12 12 12 10 8 8 8 6 9 4 6 5 5 6 6 9
10 9 10 8 8 9 10 9 9 10 11 9 9 11 7 5 6 6 6 7 8 9 9 11 12 10 11 10 9 10 11 11 11 11 12 13 11 10 8 13 11 10 8 5 11 3 2 2 2 5 8 8
10 10 10 12 13 12 11 11 11 5 5 6 5 5 6 6 6 5 6 6 7 7 8 12 13 12 9 11 10 7 7 10 12 12 12 11 10 11 11 10 11 12 10 5 5 2 1 2 3 4 10 5
Wind_Direction
161 160 154 156 142 145 139 137 136 133 133 126 121 111 99 95 96 100 103 105 106 106 106 106 106 106 106 106 106 106 105 104 104 102 102 102 98 90 83 80 77 74 69 62 55 45 33 31 32 43 66 71
160 155 156 149 140 138 136 136 135 136 132 120 111 103 95 96 96 100 102 104 105 105 108 109 110 107 104 102 102 102 102 103 104 105 104 103 98 89 83 80 76 73 68 62 51 44 29 39 35 48 70 78
151 161 141 148 144 139 134 126 126 122 112 112 108 99 95 88 85 81 84 87 87 90 91 96 102 106 106 107 105 105 105 105 106 107 105 104 98 87 84 80 76 71 65 58 50 38 31 35 38 72 76 72
172 145 143 145 142 142 134 128 116 107 109 113 110 108 107 107 103 99 91 91 85 82 92 97 103 106 108 107 106 105 105 104 105 106 106 103 92 86 82 76 71 67 63 57 47 34 38 37 52 60 58 64
173 142 145 139 139 144 136 122 111 108 111 117 120 124 128 136 126 120 117 112 104 95 87 93 101 104 103 103 103 102 102 101 102 103 101 96 95 93 88 81 72 63 60 55 47 34 43 58 70 65 70 67
170 160 183 174 158 161 132 124 125 130 132 141 143 144 155 150 139 140 120 110 114 109 104 90 93 98 102 102 100 100 100 101 101 102 101 101 100 100 101 102 91 78 65 52 47 46 53 68 84 79 75 65
176 182 191 184 170 155 153 145 154 153 147 163 161 167 167 165 156 140 134 127 96 101 88 95 98 99 102 100 97 98 98 100 101 101 100 99 97 96 98 88 90 86 84 72 61 63 71 70 80 85 80 73
189 191 194 193 170 172 172 158 181 167 170 175 177 182 179 175 150 129 98 99 108 113 117 98 91 95 96 95 95 100 98 97 98 101 101 106 122 114 91 91 87 84 74 69 62 62 71 79 73 87 79 75
205 200 197 194 183 183 181 171 177 184 183 183 186 194 191 168 158 131 131 134 145 144 133 131 128 128 126 124 123 127 114 117 125 122 121 129 110 90 88 86 83 83 85 77 69 65 67 76 84 86 87 80
208 216 204 199 193 186 190 188 182 177 195 189 195 197 190 160 163 147 147 156 167 143 146 149 153 147 141 138 135 137 132 139 137 129 118 108 99 86 80 73 66 63 68 70 64 65 63 72 77 81 83 84
214 215 214 209 199 202 191 179 170 176 179 203 198 192 190 177 172 158 162 170 176 158 160 162 163 151 149 150 149 149 141 137 134 120 114 104 98 93 88 80 73 66 63 64 70 68 64 67 77 80 80 82
204 217 224 222 193 215 202 192 191 178 175 186 201 199 194 189 175 171 167 176 185 175 177 169 161 155 156 157 150 145 139 137 124 114 105 104 104 103 95 92 87 81 73 68 64 65 61 64 72 77 79 81
188 204 220 227 218 213 210 206 195 190 177 182 191 200 200 195 186 176 175 181 180 186 188 171 165 160 166 159 150 147 144 133 125 118 117 119 118 113 110 104 97 92 86 80 73 70 66 66 72 76 82 81
206 202 210 221 228 216 188 216 208 189 182 186 172 178 188 204 197 184 180 181 179 182 186 180 160 170 167 164 153 151 142 138 132 130 126 123 121 118 112 105 104 102 93 84 79 76 74 74 78 75 77 81
211 183 204 208 223 229 207 213 217 198 193 200 196 182 183 200 203 187 186 181 184 187 176 186 171 175 166 164 156 157 147 143 141 136 133 136 134 127 118 113 110 109 102 95 87 80 79 79 80 74 71 78
224 223 191 181 196 244 230 209 208 207 204 206 212 199 185 198 204 201 188 187 184 185 170 187 182 168 166 161 156 157 148 137 133 127 127 126 121 119 120 118 118 114 110 102 94 88 85 81 83 80 76 73
221 234 233 212 187 206 231 224 213 217 214 213 210 200 195 198 203 203 197 193 189 186 173 185 172 141 119 149 150 142 139 137 132 129 127 123 131 126 128 122 119 114 112 110 105 98 91 90 87 89 89 83
230 228 227 234 225 208 202 226 223 220 219 209 209 200 200 199 204 205 204 194 180 175 181 179 166 158 158 170 152 145 150 151 144 140 137 138 140 136 135 133 129 126 119 115 110 106 101 99 97 94 86 81
224 223 220 218 224 223 211 220 225 224 220 222 210 201 195 200 204 208 208 196 182 180 183 177 167 163 154 157 144 143 164 158 146 142 144 147 140 142 137 131 126 122 120 118 116 113 111 100 103 95 88 81
210 216 224 230 226 227 221 218 226 228 219 211 212 202 195 199 203 203 209 199 193 180 176 172 167 162 154 152 147 148 156 157 149 147 145 149 148 141 136 131 126 124 123 120 117 115 112 114 108 99 90 84
201 204 212 218 223 224 221 221 217 226 230 192 201 209 206 194 189 203 203 182 188 190 179 177 171 164 163 159 165 158 157 166 148 142 138 142 146 151 135 133 126 123 124 122 116 112 112 110 106 101 97 92
199 203 206 213 222 221 214 221 222 208 220 212 195 195 207 180 172 199 208 186 174 184 176 176 174 170 163 165 169 156 152 164 145 140 143 134 134 143 135 133 135 132 129 125 122 115 114 104 92 89 89 88
197 205 214 220 221 216 211 217 219 210 201 205 199 195 198 180 173 200 198 182 176 161 160 165 170 172 172 170 161 159 152 153 158 144 147 142 130 122 121 132 132 130 130 124 116 109 100 92 90 90 88 98
192 195 202 207 208 213 215 213 209 214 207 197 197 198 190 186 191 193 188 191 170 162 158 156 164 169 168 172 169 165 163 165 164 154 144 139 137 128 107 98 124 127 130 119 111 103 93 85 88 83 85 83
189 189 187 201 206 212 212 210 198 204 210 204 203 198 193 187 192 188 188 178 180 177 160 154 158 159 169 165 170 178 173 168 159 147 141 136 135 134 125 126 138 139 134 128 114 110 106 98 79 78 90 97
189 188 190 190 200 207 206 206 204 205 202 205 205 201 195 194 199 189 186 175 170 171 164 158 157 166 166 167 173 178 168 159 149 146 149 147 128 140 139 145 162 155 144 150 152 148 145 126 115 96 99 107
188 188 189 197 204 201 203 210 214 214 209 200 199 200 192 186 192 191 186 173 167 167 171 159 161 165 166 171 169 166 167 164 163 164 162 164 150 146 145 137 162 169 182 146 146 138 130 160 159 166 179 164
186 183 182 199 218 207 209 206 142 101 141 185 196 198 189 187 188 190 183 178 173 169 175 171 171 166 171 172 175 173 166 169 173 168 163 167 165 149 143 163 178 192 200 157 153 161 200 169 178 165 213 180
178 171 180 177 115 129 97 95 176 189 207 199 197 200 184 189 183 192 176 187 174 175 178 181 178 174 174 178 181 178 168 164 169 168 174 168 163 167 155 166 175 198 215 195 188 149 154 142 213 231 151 150
176 178 181 164 181 194 202 204 196 199 199 190 193 201 187 156 181 191 191 185 179 182 179 181 181 178 174 174 184 183 180 175 171 172 171 177 170 175 176 159 169 184 202 225 205 261 341 329 242 178 140 156
179 182 184 193 203 206 205 206 208 199 193 182 174 172 164 175 178 198 194 186 177 175 180 187 182 176 169 173 172 177 174 179 180 179 181 176 183 178 171 168 172 180 182 200 244 207 207 342 300 108 139 189